• Processing (Info)

  • MPEC 2005-B42 : COMET P/2004 WR9 (LINEAR)

    The following Minor Planet Electronic Circular may be linked-to from your own Web pages, but must not otherwise be redistributed electronically.

    A form allowing access to any MPEC is at the bottom of this page.


    Read MPEC 2005-B41 Read MPEC 2005-B43


    M.P.E.C. 2005-B42                                Issued 2005 Jan. 21, 23:02 UT
    
         The Minor Planet Electronic Circulars contain information on unusual
             minor planets and routine data on comets.  They are published
       on behalf of Commission 20 of the International Astronomical Union by the
              Minor Planet Center, Smithsonian Astrophysical Observatory,
                              Cambridge, MA 02138, U.S.A.
    
                      Supported in part by the Brinson Foundation
                 Prepared using the Tamkin Foundation Computer Network
    
                                  MPC@CFA.HARVARD.EDU
              URL http://cfa-www.harvard.edu/iau/mpc.html  ISSN 1523-6714
    
                               COMET P/2004 WR9 (LINEAR)
    
    Observations:
        PK04W09R  C2005 01 14.85584 05 18 11.03 +32 07 56.9          17.1 N EB042213
        PK04W09R  C2005 01 14.86307 05 18 11.15 +32 07 56.7          17.1 N EB042213
        PK04W09R  C2005 01 15.84602 05 18 26.62 +32 06 52.5                 EB042201
        PK04W09R  C2005 01 15.85425 05 18 26.72 +32 06 52.2                 EB042201
        PK04W09R  C2005 01 15.86130 05 18 26.72 +32 06 51.5                 EB042A46
        PK04W09R  C2005 01 15.86492 05 18 26.76 +32 06 51.0                 EB042A46
        PK04W09R  C2005 01 15.86615 05 18 26.77 +32 06 51.5                 EB042A46
        PK04W09R  C2005 01 15.87466 05 18 26.88 +32 06 50.1                 EB042A46
        PK04W09R  C2005 01 15.87588 05 18 26.95 +32 06 50.4                 EB042A46
        PK04W09R  C2005 01 15.87711 05 18 26.95 +32 06 50.5                 EB042A46
        PK04W09R  C2005 01 17.96164 05 19 07.01 +32 04 26.8          17.3 N EB042J78
        PK04W09R  C2005 01 18.87661 05 19 27.93 +32 03 18.8          17.5 N EB042213
        PK04W09R  C2005 01 18.87884 05 19 27.94 +32 03 17.4          17.5 N EB042213
        PK04W09R  C2005 01 18.88106 05 19 28.00 +32 03 17.5          17.5 N EB042213
    
    Observer details:
    201 Jonathan B. Postel Observatory.  Observer V. Pozzoli.  0.40-m f/9
        Cassegrain + CCD.
    213 Observatorio Montcabre.  Observer R. Naves.  Measurer M. Campas.  0.30-m
        f/6.6 Schmidt-Cassegrain + CCD.
    A46 Lelekovice.  Observer K. Hornoch.  0.35-m f/4.7 reflector + CCD.
    J78 Murcia.  Observer J. Sanchez.  0.25-m f/8.9 Schmidt-Cassegrain + CCD.
    
    Orbital elements:
        P/2004 WR9 (LINEAR)
    Epoch 2005 Jan. 30.0 TT = JDT 2453400.5
    T 2005 Jan. 11.49204 TT                                 MPC
    q   1.9172383            (2000.0)            P               Q
    n   0.06604682     Peri.   70.63085     -0.10438956     -0.99381719
    a   6.0613324      Node    25.45177     +0.87626146     -0.10989389
    e   0.6836936      Incl.    5.04857     +0.47039204     -0.01583436
    P  14.92
    Residuals in seconds of arc
    041122 704  0.3+  0.7+    041208 246 (0.7-  2.9-)   041216 360  0.7-  0.0
    041122 704  0.2+  0.0     041208 130  0.1+  0.2-    041217 704 (3.3+  0.5+)
    041122 704  0.1-  1.4+    041208 130  0.2-  0.2-    041217 704 (2.7+  0.3-)
    041202 704  0.1+  0.4+    041208 130  0.4+  0.0     041217 704 (2.0+  0.1+)
    041202 704  0.4-  0.8-    041208 649  0.0   0.2+    041217 704  1.9+  0.3+
    041202 704 (2.4-  1.1-)   041208 649  0.7-  0.0     041217 704  1.9+  0.3+
    041202 704  0.1+  0.8+    041208 734  0.4-  0.3-    041217 D83  0.5+  0.6+
    041202 704  0.1-  0.7+    041208 734  0.3+  0.8-    041218 J78  0.4-  0.3-
    041203 J95  0.1-  0.2-    041208 734  0.8+  1.0-    041218 349  0.1-  0.1+
    041203 J95  0.4-  0.0     041208 649  0.0   0.1+    041218 349  0.3-  0.4+
    041203 673  0.3+  0.5+    041208 704  0.2-  0.1+    041218 349  0.4-  0.6+
    041203 673  0.1+  0.2+    041208 704  0.0   0.4+    041218 J78  0.4-  0.3+
    041203 673  0.0   0.3+    041208 704  0.4-  0.1-    041218 A41  0.4-  0.3+
    041203 673  0.2+  0.2+    041208 704  0.8-  0.3+    041218 A41  0.5-  0.1-
    041203 850  0.2+  0.4-    041208 850  0.2-  0.8-    041218 A41  0.7-  0.5+
    041203 H36  0.0   0.1-    041208 850  0.1-  1.2-    041220 048  0.1+  1.1+
    041203 850  0.4-  0.1-    041208 850  0.1+  0.7-    041220 048  1.2+  0.4-
    041203 H36  0.2+  0.5-    041208 850  0.1-  1.1-    041220 048  1.0+  0.3+
    041203 H36  0.2-  0.0     041208 850  0.4+  0.4-    041220 048  0.1-  0.6-
    041203 850  1.0+  0.8-    041209 704  0.2-  0.1-    041220 048  0.7+  0.6-
    041203 850  0.4+  0.7+    041209 704  0.2+  0.5-    041220 048  0.4-  0.6+
    041203 850  0.3+  0.6-    041209 704  0.8-  0.0     041220 048  0.2+  0.4-
    041203 A83 (3.2-  0.1+)   041209 704  0.5+  0.0     041228 213  0.3+  0.5-
    041203 A83  0.0   0.0     041209 704  0.2-  0.1+    041228 213  0.2-  0.4-
    041203 A83  0.1+  0.4+    041209 704  0.6+  0.3+    041228 213  0.2+  0.5-
    041204 649  0.1+  0.0     041209 704  1.1+  1.8+    041231 349  0.0   0.4+
    041204 649  0.3-  0.2-    041209 704  0.0   1.4+    041231 349  0.2+  0.4+
    041204 734  0.1+  0.0     041209 360  0.1-  0.4+    050101 D70  0.5+  1.0+
    041204 673  0.0   0.3+    041209 360  0.1-  0.4+    050101 D70  0.9+  0.6+
    041204 673  0.0   0.4+    041209 360  0.2-  0.4+    050101 349  0.1+  0.8+
    041204 673  0.2-  0.2+    041209 D74  0.2-  0.8+    050101 349  0.3+  0.9+
    041204 673  0.1+  0.3+    041209 D74  0.4+  0.7+    050101 104  0.1-  0.3+
    041204 673  0.2-  0.2+    041209 D74  0.4+  0.1+    050101 104  0.3-  0.4+
    041204 673  0.1+  0.3+    041210 372 (2.5-  2.1+)   050101 104  0.5-  0.5+
    041204 734  0.2+  0.1-    041210 561  0.0   0.4+    050101 170  0.1+  0.0
    041204 G72  1.1+  0.6+    041210 561  0.0   0.3+    050101 170  0.0   0.1+
    041204 G72  0.4+  0.1+    041210 561  0.1+  0.2+    050101 213  0.1-  1.8-
    041204 G72  0.2+  0.2-    041210 213 (2.4-  2.4+)   050101 213  0.2+  1.6-
    041204 G72  0.6+  0.5-    041210 213  0.3-  1.5+    050102 D88  0.2-  1.0-
    041204 G72  0.0   0.1-    041210 213  1.4+  0.5+    050102 D88  0.6+  1.2-
    041204 G72  0.1-  0.0     041210 159  0.3+  0.8-    050102 D88  0.2+  1.0-
    041204 850  0.2-  1.0-    041210 159  1.7+  1.1-    050104 213  0.1+  0.4+
    041204 850  0.4-  0.5-    041210 A32  0.6+  0.1-    050104 213  0.0   0.1+
    041204 246  0.2-  0.0     041210 159  0.2-  0.4-    050104 213  0.5-  0.1+
    041204 246  0.0   0.2+    041210 159  0.2-  0.9-    050108 204  0.1+  0.4+
    041204 246  0.3-  0.1+    041210 A32  0.1+  0.3+    050108 349  0.1+  0.1-
    041204 246  0.0   0.2+    041211 J78  0.0   0.3+    050108 349  0.1+  0.0
    041204 246  0.2-  0.2+    041211 349  0.3+  0.5+    050108 213  0.4-  0.0
    041204 246  0.1-  0.1+    041211 349  0.3+  0.4+    050108 213  0.5-  0.0
    041204 246  0.1-  0.1+    041211 349  0.4+  0.6+    050108 213  0.5-  0.1+
    041205 118  0.1-  0.1-    041212 246  0.2-  0.1+    050110 349  0.4+  0.6-
    041205 118  0.1+  0.2+    041212 246  0.3-  0.1+    050110 349  0.4+  0.5-
    041205 734  0.3-  0.0     041212 246  0.3-  0.1+    050110 215  0.2-  0.2-
    041205 734  0.3+  0.2-    041212 246  0.2-  0.1+    050110 215  0.2-  0.0
    041205 734  0.3-  0.0     041212 246  0.1-  0.0     050110 215  0.4+  0.1-
    041205 J87  0.0   0.0     041212 246  0.1-  0.0     050110 215  0.4+  0.2+
    041205 J87  1.2-  0.8+    041212 204  0.0   0.0     050110 A46  0.4+  0.3-
    041205 J87  0.2-  0.2+    041212 204  0.1+  0.1-    050110 A46  0.3+  0.4-
    041205 143  0.3-  0.3-    041212 204  0.0   0.0     050110 A46  0.2+  0.2+
    041205 143  0.1+  0.1-    041213 H06  0.3-  0.1+    050110 A46  0.2-  0.1+
    041205 143  0.1-  0.4-    041213 H06  0.2+  0.5+    050110 A46  0.1+  0.0
    041205 143  0.1+  0.1-    041213 H06  0.3-  0.0     050110 A46  0.2-  0.2-
    041205 143  0.0   0.2-    041213 H06  0.2-  0.3+    050111 561  0.4-  0.2+
    041205 143  0.0   0.1-    041213 H06  0.2-  0.1+    050111 561  0.3-  0.2+
    041205 143  0.1+  0.5-    041213 D70  0.2+  1.1+    050111 561  0.4-  0.3+
    041206 H06  0.5-  0.1+    041213 D70  0.2+  0.2-    050114 213  0.2-  0.5+
    041206 H06  0.6-  0.1+    041213 D70  0.2-  0.2-    050114 213  0.3+  0.8+
    041206 H06  0.5-  0.1+    041214 215  0.2-  0.0     050115 201  0.3+  0.5-
    041206 118  0.1+  0.1-    041214 215  0.0   0.0     050115 201  0.1+  0.3-
    041206 118  0.2+  0.1+    041214 215  0.0   0.1-    050115 A46  0.2-  0.1-
    041206 118  0.2+  0.2+    041214 104  0.3-  0.2+    050115 A46  0.4-  0.3-
    041207 J95  0.2+  0.0     041214 104  0.1-  0.3+    050115 A46  0.5-  0.2+
    041207 J95  0.1-  0.1-    041214 104  0.3-  0.4+    050115 A46  0.6-  0.6-
    041207 704  0.1+  0.3-    041215 704  0.4-  0.3+    050115 A46  0.1+  0.2-
    041207 704  0.1+  0.1-    041215 704  1.6-  1.8+    050115 A46  0.1-  0.0
    041207 704  0.5-  0.8+    041215 704 (2.1-  0.1-)   050117 J78  0.4+  0.0
    041207 704  0.2-  0.2+    041215 372  0.3-  0.9+    050118 213  0.0   1.0+
    041207 704  0.3-  0.4+    041215 213  0.3+  0.4+    050118 213  0.4-  0.3-
    041207 587  1.7+  0.1-    041215 213  0.0   0.4+    050118 213  0.2-  0.0
    041207 587  0.5+  1.2-    041215 213  0.2+  0.4+
    041207 587  1.7-  1.2-    041216 360  0.3-  0.0
    
    Brian G. Marsden             (C) Copyright 2005 MPC           M.P.E.C. 2005-B42
    

    Read MPEC 2005-B41 Read MPEC 2005-B43


    MPEC number:

    Enter an MPEC number in one of the following forms:

    • 1997-B01 (the full form)
    • J97B01 (the packed version of the full form)
    • B01 (the abbreviated form)